GW4214 Weather Reports


Display with metric or nautical units.
time (UTC)temp
F
wind
direction
speed
MPH
gust
MPH
rain 1hr
in
rain 24hr
in
rain mn
in
humidity
%
barometer
mb
20260506044809 62 285 4.0 5.0 0.00 0.00 0.00 80 1019.3
20260506044307 62 282 3.0 5.0 0.00 0.00 0.00 79 1019.3
20260506043804 62 226 1.0 1.0 0.00 0.00 0.00 79 1019.3
20260506043301 62 218 0.0 0.0 0.00 0.00 0.00 79 1019.3
20260506042801 63 206 0.0 0.0 0.00 0.00 0.00 78 1018.9
20260506042258 63 204 0.0 0.0 0.00 0.00 0.00 78 1018.9
20260506041757 63 207 0.0 0.0 0.00 0.00 0.00 77 1018.9
20260506041253 63 198 0.0 0.0 0.00 0.00 0.00 77 1018.6
20260506040750 63 208 0.0 0.0 0.00 0.00 0.00 77 1018.6
20260506040248 63 204 0.0 0.0 0.00 0.00 0.00 77 1018.6
20260506035745 63 205 0.0 0.0 0.00 0.00 0.00 77 1018.2
20260506035241 63 206 0.0 0.0 0.00 0.00 0.00 76 1018.6
20260506034738 63 202 0.0 0.0 0.00 0.00 0.00 76 1018.2
20260506034235 63 216 0.0 0.0 0.00 0.00 0.00 76 1018.2
20260506033732 63 216 0.0 0.0 0.00 0.00 0.00 76 1018.2
20260506033230 63 213 0.0 0.0 0.00 0.00 0.00 76 1018.2
20260506032726 63 204 0.0 0.0 0.00 0.00 0.00 76 1018.2
20260506032223 63 212 0.0 0.0 0.00 0.00 0.00 76 1017.9
20260506031720 63 212 0.0 0.0 0.00 0.00 0.00 76 1018.2
20260506031217 63 200 1.0 2.0 0.00 0.00 0.00 75 1018.2
20260506030715 64 196 0.0 1.0 0.00 0.00 0.00 75 1017.9
20260506030212 64 227 0.0 0.0 0.00 0.00 0.00 76 1017.9
20260506025709 64 204 0.0 0.0 0.00 0.00 0.00 76 1017.9
20260506025206 64 208 0.0 0.0 0.00 0.00 0.00 75 1017.9
20260506024703 64 197 0.0 0.0 0.00 0.00 0.00 75 1017.6
20260506024159 64 213 0.0 0.0 0.00 0.00 0.00 75 1017.9
20260506023655 64 207 0.0 0.0 0.00 0.00 0.00 74 1017.9
20260506023153 64 196 0.0 0.0 0.00 0.00 0.00 74 1017.9
20260506022650 65 206 0.0 0.0 0.00 0.00 0.00 74 1017.9
20260506022147 65 200 0.0 0.0 0.00 0.00 0.00 74 1017.9
20260506021645 65 175 0.0 1.0 0.00 0.00 0.00 73 1017.9
20260506021142 65 217 0.0 1.0 0.00 0.00 0.00 73 1017.9
20260506020639 65 211 0.0 0.0 0.00 0.00 0.00 72 1017.9
20260506020137 65 212 0.0 0.0 0.00 0.00 0.00 73 1017.6
20260506015634 65 211 0.0 1.0 0.00 0.00 0.00 73 1017.6
20260506015131 66 163 2.0 2.0 0.00 0.00 0.00 72 1017.9
20260506014629 66 212 0.0 0.0 0.00 0.00 0.00 71 1017.9
20260506014124 66 223 2.0 2.0 0.00 0.00 0.00 71 1017.6
20260506013623 66 0 0.0 0.0 0.00 0.00 0.00 72 1017.6
20260506013119 66 335 3.0 3.0 0.00 0.00 0.00 72 1017.9
20260506012615 66 189 1.0 1.0 0.00 0.00 0.00 71 1017.9
20260506012111 66 239 1.0 1.0 0.00 0.00 0.00 71 1017.9
20260506011609 66 217 2.0 2.0 0.00 0.00 0.00 71 1017.6
20260506011105 66 214 0.0 0.0 0.00 0.00 0.00 69 1017.9
20260506010559 66 206 0.0 0.0 0.00 0.00 0.00 70 1017.6
20260506010055 67 206 0.0 1.0 0.00 0.00 0.00 70 1017.6
20260506005553 67 205 0.0 0.0 0.00 0.00 0.00 70 1017.9
20260506005048 66 241 0.0 1.0 0.00 0.00 0.00 69 1017.9
20260506004546 66 266 4.0 6.0 0.00 0.00 0.00 69 1017.6
20260506004043 66 257 2.0 2.0 0.00 0.00 0.00 69 1017.9
20260506003539 68 2 1.0 2.0 0.00 0.00 0.00 67 1017.9
20260506003035 68 272 1.0 1.0 0.00 0.00 0.00 66 1017.6
20260506002531 68 256 1.0 2.0 0.00 0.00 0.00 67 1017.6
20260506002027 68 226 2.0 2.0 0.00 0.00 0.00 66 1017.6
20260506001524 68 274 2.0 2.0 0.00 0.00 0.00 66 1017.6
20260506001021 68 223 1.0 1.0 0.00 0.00 0.00 66 1017.6
20260506000519 68 278 0.0 1.0 0.00 0.00 0.00 67 1017.9
20260506000016 69 178 3.0 3.0 0.00 0.00 0.00 65 1017.9
20260505235514 69 187 1.0 2.0 0.00 0.00 0.00 67 1018.2
20260505235010 69 235 0.0 1.0 0.00 0.00 0.00 67 1017.9
20260505234507 68 234 1.0 2.0 0.00 0.00 0.00 67 1018.2
20260505234004 68 208 0.0 1.0 0.00 0.00 0.00 68 1018.2
20260505233502 69 223 1.0 2.0 0.00 0.00 0.00 66 1018.2
20260505232959 69 178 1.0 1.0 0.00 0.00 0.00 64 1018.6
20260505232457 70 249 2.0 6.0 0.00 0.00 0.00 65 1018.6
20260505231954 69 195 1.0 1.0 0.00 0.00 0.00 63 1018.2
20260505231451 70 220 0.0 0.0 0.00 0.00 0.00 64 1018.6
20260505230949 67 214 0.0 0.0 0.00 0.00 0.00 66 1018.2
20260505230447 66 194 1.0 1.0 0.00 0.00 0.00 68 1018.6
20260505225943 67 4 4.0 5.0 0.00 0.00 0.00 69 1018.6
20260505225440 67 262 2.0 3.0 0.00 0.00 0.00 67 1018.6
20260505224936 66 337 0.0 1.0 0.00 0.00 0.00 69 1018.6
20260505224433 66 245 1.0 2.0 0.00 0.00 0.00 68 1018.6
20260505223930 65 146 1.0 1.0 0.00 0.00 0.00 69 1018.6
20260505223427 65 257 2.0 2.0 0.00 0.00 0.00 70 1018.6
20260505222923 65 250 1.0 1.0 0.00 0.00 0.00 72 1018.6
20260505222420 65 278 4.0 5.0 0.00 0.00 0.00 71 1018.9
20260505221915 66 87 2.0 2.0 0.00 0.00 0.00 72 1018.6
20260505221413 65 236 1.0 1.0 0.00 0.00 0.00 71 1018.6
20260505220910 65 218 0.0 0.0 0.00 0.00 0.00 72 1018.6
20260505220407 65 220 1.0 1.0 0.00 0.00 0.00 72 1018.9
20260505215905 63 219 0.0 0.0 0.00 0.00 0.00 74 1019.3
20260505215402 63 265 2.0 5.0 0.00 0.00 0.00 75 1018.9
20260505214900 63 215 0.0 0.0 0.00 0.00 0.00 75 1018.9
20260505214357 64 295 1.0 2.0 0.00 0.00 0.00 74 1018.9
20260505213855 64 254 3.0 3.0 0.00 0.00 0.00 73 1018.9
20260505213352 63 237 2.0 2.0 0.00 0.00 0.00 73 1018.9
20260505212848 63 231 3.0 3.0 0.00 0.00 0.00 74 1018.9
20260505212345 64 219 0.0 1.0 0.00 0.00 0.00 74 1018.9
20260505211841 64 208 0.0 0.0 0.00 0.00 0.00 73 1018.9
20260505211339 64 247 1.0 2.0 0.00 0.00 0.00 72 1019.3
20260505210836 63 210 0.0 0.0 0.00 0.00 0.00 75 1018.9
20260505210333 62 205 0.0 1.0 0.00 0.00 0.00 75 1018.9
20260505205829 63 279 2.0 2.0 0.00 0.00 0.00 74 1019.3
20260505205328 63 304 3.0 3.0 0.00 0.00 0.00 74 1019.3
20260505204824 63 5 2.0 2.0 0.00 0.00 0.00 73 1018.9
20260505204322 63 239 1.0 2.0 0.00 0.00 0.00 75 1019.3
20260505203819 63 214 2.0 2.0 0.00 0.00 0.00 74 1019.3
20260505203316 63 302 3.0 5.0 0.00 0.00 0.00 75 1019.3
20260505202812 63 241 1.0 2.0 0.00 0.00 0.00 74 1019.3
20260505202308 62 223 1.0 1.0 0.00 0.00 0.00 75 1019.3
20260505201805 64 188 0.0 0.0 0.00 0.00 0.00 74 1019.3
20260505201302 64 223 0.0 0.0 0.00 0.00 0.00 72 1019.3
20260505200801 63 222 0.0 0.0 0.00 0.00 0.00 73 1019.3
20260505200257 62 212 0.0 0.0 0.00 0.00 0.00 75 1019.3
20260505195752 61 213 0.0 1.0 0.00 0.00 0.00 77 1019.3
20260505195250 61 180 2.0 2.0 0.00 0.00 0.00 76 1019.3
20260505194747 61 220 1.0 1.0 0.00 0.00 0.00 76 1019.3
20260505194244 61 199 2.0 2.0 0.00 0.00 0.00 77 1019.3
20260505193739 62 178 2.0 2.0 0.00 0.00 0.00 75 1019.6
20260505193237 62 205 1.0 1.0 0.00 0.00 0.00 75 1019.3
20260505192736 61 209 0.0 0.0 0.00 0.00 0.00 78 1019.6
20260505192233 61 209 0.0 1.0 0.00 0.00 0.00 77 1019.6
20260505191731 62 218 0.0 0.0 0.00 0.00 0.00 75 1019.6
20260505191229 62 228 0.0 1.0 0.00 0.00 0.00 75 1019.6
20260505190725 62 203 0.0 1.0 0.00 0.00 0.00 74 1019.6
20260505190225 61 212 0.0 0.0 0.00 0.00 0.00 76 1019.6
20260505185722 61 232 1.0 2.0 0.00 0.00 0.00 77 1019.3
20260505185218 62 203 1.0 1.0 0.00 0.00 0.00 75 1019.6
20260505184714 62 220 0.0 1.0 0.00 0.00 0.00 75 1019.3
20260505184212 61 222 1.0 1.0 0.00 0.00 0.00 76 1019.6
20260505183708 61 226 0.0 0.0 0.00 0.00 0.00 76 1019.3
20260505183206 60 214 1.0 1.0 0.00 0.00 0.00 77 1019.3
20260505182702 60 254 1.0 2.0 0.00 0.00 0.00 77 1019.3
20260505182159 60 207 0.0 0.0 0.00 0.00 0.00 77 1019.6
20260505181655 60 220 0.0 0.0 0.00 0.00 0.00 79 1019.6
20260505181153 61 223 2.0 2.0 0.00 0.00 0.00 76 1019.6
20260505180649 61 201 0.0 0.0 0.00 0.00 0.00 78 1019.3
20260505180147 60 212 0.0 1.0 0.00 0.00 0.00 78 1019.3
20260505175642 60 212 0.0 1.0 0.00 0.00 0.00 79 1019.3
20260505175139 59 206 0.0 0.0 0.00 0.00 0.00 80 1019.3
20260505174636 59 203 0.0 0.0 0.00 0.00 0.00 80 1018.9
20260505174132 59 202 0.0 1.0 0.00 0.00 0.00 80 1019.6
20260505173629 59 212 0.0 0.0 0.00 0.00 0.00 80 1019.3
20260505173125 59 203 0.0 1.0 0.00 0.00 0.00 79 1019.3
20260505172623 58 212 0.0 0.0 0.00 0.00 0.00 81 1019.3
20260505172120 58 198 1.0 1.0 0.00 0.00 0.00 82 1019.3
20260505171614 57 202 2.0 2.0 0.00 0.00 0.00 82 1018.9
20260505171112 58 198 4.0 5.0 0.00 0.00 0.00 81 1019.3
20260505170609 59 221 2.0 2.0 0.00 0.00 0.00 80 1018.9
20260505170105 59 249 2.0 2.0 0.00 0.00 0.00 79 1019.3
20260505165559 59 196 1.0 1.0 0.00 0.00 0.00 80 1019.3
20260505165056 58 221 1.0 1.0 0.00 0.00 0.00 81 1018.9
20260505164552 58 227 0.0 0.0 0.00 0.00 0.00 83 1019.3
20260505164050 57 178 1.0 1.0 0.00 0.00 0.00 83 1018.9
20260505163549 57 202 1.0 1.0 0.00 0.00 0.00 83 1018.9
20260505163045 57 265 3.0 3.0 0.00 0.00 0.00 82 1018.9
20260505162543 57 219 0.0 1.0 0.00 0.00 0.00 84 1018.9
20260505162041 57 216 2.0 2.0 0.00 0.00 0.00 83 1018.9
20260505161538 56 220 0.0 0.0 0.00 0.00 0.00 85 1018.9
20260505161035 56 224 1.0 1.0 0.00 0.00 0.00 85 1019.3
20260505160533 56 200 1.0 1.0 0.00 0.00 0.00 86 1018.9
20260505153009 55 229 1.0 2.0 0.00 0.00 0.00 86 1018.9
20260505152506 55 223 1.0 1.0 0.00 0.00 0.00 87 1018.6
20260505152002 55 218 0.0 1.0 0.00 0.00 0.00 88 1018.9
20260505151457 55 218 2.0 2.0 0.00 0.00 0.00 88 1018.9
20260505150955 55 228 2.0 2.0 0.00 0.00 0.00 88 1018.6
20260505150451 54 246 1.0 2.0 0.00 0.00 0.00 89 1019.3
20260505140422 54 218 1.0 1.0 0.00 0.00 0.00 91 1018.2
20260505124835 53 205 1.0 1.0 0.00 0.00 0.00 92 1017.9
20260505124332 54 232 0.0 1.0 0.00 0.00 0.00 92 1017.9
20260505123828 54 220 0.0 0.0 0.00 0.00 0.00 91 1017.6
20260505123324 54 221 0.0 1.0 0.00 0.00 0.00 91 1017.6
20260505122821 54 220 0.0 0.0 0.00 0.00 0.00 91 1017.9
20260505122318 54 199 0.0 1.0 0.00 0.00 0.00 91 1017.6
20260505121815 54 211 0.0 0.0 0.00 0.00 0.00 91 1017.9
20260505121312 54 218 1.0 1.0 0.00 0.00 0.00 91 1017.6
20260505120808 54 212 0.0 0.0 0.00 0.00 0.00 90 1017.6
20260505120304 54 212 0.0 0.0 0.00 0.00 0.00 90 1017.6
20260505115802 54 218 0.0 0.0 0.00 0.00 0.00 90 1017.6
20260505115300 54 214 1.0 1.0 0.00 0.00 0.00 90 1017.6
20260505114757 54 216 0.0 0.0 0.00 0.00 0.00 89 1017.9
20260505114254 54 210 0.0 0.0 0.00 0.00 0.00 89 1017.9
20260505113750 54 209 1.0 1.0 0.00 0.00 0.00 89 1017.6
20260505113247 54 219 1.0 1.0 0.00 0.00 0.00 89 1017.9
20260505112743 54 217 3.0 3.0 0.00 0.00 0.00 89 1017.6
20260505112241 54 190 2.0 2.0 0.00 0.00 0.00 89 1017.6
20260505111740 54 206 0.0 0.0 0.00 0.00 0.00 89 1017.6
20260505111236 54 209 1.0 1.0 0.00 0.00 0.00 89 1017.6
20260505110732 54 225 1.0 2.0 0.00 0.00 0.00 89 1017.2
20260505110230 54 179 1.0 2.0 0.00 0.00 0.00 89 1017.6
20260505102205 54 196 1.0 1.0 0.00 0.00 0.00 90 1017.2
20260505101704 54 190 1.0 1.0 0.00 0.00 0.00 90 1017.6
20260505101200 54 187 2.0 2.0 0.00 0.00 0.00 90 1017.2
20260505100656 54 184 2.0 2.0 0.00 0.00 0.00 90 1017.2
20260505100154 54 183 1.0 1.0 0.00 0.00 0.00 90 1017.2
20260505095649 54 202 0.0 1.0 0.00 0.00 0.00 90 1017.2
20260505095147 54 201 0.0 1.0 0.00 0.00 0.00 90 1017.2
20260505094642 54 196 1.0 1.0 0.00 0.00 0.00 90 1017.2
20260505094139 54 196 1.0 1.0 0.00 0.00 0.00 90 1016.9
20260505093635 54 209 0.0 0.0 0.00 0.00 0.00 89 1016.9
20260505093133 54 188 1.0 2.0 0.00 0.00 0.00 89 1016.9
20260505092630 54 186 1.0 2.0 0.00 0.00 0.00 89 1017.2
20260505092129 54 196 1.0 1.0 0.00 0.00 0.00 89 1017.2
20260505091625 54 203 1.0 2.0 0.00 0.00 0.00 89 1017.2
20260505091123 54 201 2.0 2.0 0.00 0.00 0.00 89 1016.9
20260505090621 54 197 2.0 2.0 0.00 0.00 0.00 89 1016.9
20260505090119 54 185 2.0 2.0 0.00 0.00 0.00 89 1016.9
20260505085616 54 206 1.0 1.0 0.00 0.00 0.00 89 1016.9
20260505085114 54 212 0.0 0.0 0.00 0.00 0.00 89 1017.2
20260505084611 54 182 2.0 2.0 0.00 0.00 0.00 89 1016.9
20260505084110 54 213 1.0 1.0 0.00 0.00 0.00 89 1017.2
20260505083607 54 207 1.0 2.0 0.00 0.00 0.00 90 1016.9
20260505083103 53 211 0.0 0.0 0.00 0.00 0.00 90 1016.9
20260505082559 54 210 1.0 2.0 0.00 0.00 0.00 90 1016.5
20260505082056 54 197 2.0 2.0 0.00 0.00 0.00 90 1016.9
20260505081552 54 172 2.0 2.0 0.00 0.00 0.00 90 1016.9
20260505081050 54 196 1.0 1.0 0.00 0.00 0.00 90 1016.9
20260505080546 54 193 1.0 2.0 0.00 0.00 0.00 90 1016.9
20260505080043 54 195 1.0 1.0 0.00 0.00 0.00 90 1016.9
20260505075538 54 207 0.0 0.0 0.00 0.00 0.00 90 1016.5
20260505075035 54 201 1.0 1.0 0.00 0.00 0.00 90 1016.5
20260505074532 54 191 3.0 3.0 0.00 0.00 0.00 90 1016.5
20260505074030 54 200 1.0 1.0 0.00 0.00 0.00 90 1016.9
20260505073527 53 184 3.0 5.0 0.00 0.00 0.00 90 1016.9
20260505073025 53 198 1.0 1.0 0.00 0.00 0.00 90 1016.5
20260505072520 53 193 1.0 2.0 0.00 0.00 0.00 90 1016.9
20260505072017 54 207 0.0 0.0 0.00 0.00 0.00 90 1016.9
20260505071513 54 200 1.0 1.0 0.00 0.00 0.00 89 1016.5
20260505071011 54 219 1.0 1.0 0.00 0.00 0.00 90 1016.5
20260505070508 54 213 1.0 1.0 0.00 0.00 0.00 89 1016.5
20260505070004 54 211 2.0 2.0 0.00 0.00 0.00 89 1016.5
20260505065500 54 211 3.0 3.0 0.00 0.00 0.00 89 1016.2
20260505064956 54 203 1.0 2.0 0.00 0.00 0.00 89 1016.5
20260505064453 54 208 2.0 2.0 0.00 0.00 0.00 89 1016.2
20260505063952 54 211 1.0 1.0 0.00 0.00 0.00 89 1016.2
20260505063448 54 213 0.0 0.0 0.00 0.00 0.00 89 1016.2
20260505062945 54 207 1.0 1.0 0.00 0.00 0.00 89 1016.2
20260505062442 54 209 1.0 2.0 0.00 0.00 0.00 88 1016.2
20260505061938 54 194 1.0 1.0 0.00 0.00 0.00 88 1016.2
20260505061437 54 214 3.0 3.0 0.00 0.00 0.00 88 1016.2
20260505060934 55 209 0.0 0.0 0.00 0.00 0.00 88 1016.2
20260505060431 55 207 2.0 2.0 0.00 0.00 0.00 88 1016.2
20260505055927 55 206 1.0 1.0 0.00 0.00 0.00 87 1016.2
20260505055423 55 223 1.0 2.0 0.00 0.00 0.00 87 1016.2
20260505054920 55 211 1.0 1.0 0.00 0.00 0.00 87 1016.2
20260505054417 55 204 3.0 5.0 0.00 0.00 0.00 87 1016.2
20260505053915 55 187 1.0 2.0 0.00 0.00 0.00 87 1016.2
20260505053412 55 234 3.0 3.0 0.00 0.00 0.00 87 1016.2
20260505052909 55 209 2.0 2.0 0.00 0.00 0.00 87 1016.2
20260505052406 55 221 2.0 2.0 0.00 0.00 0.00 87 1015.9
20260505051903 56 217 1.0 2.0 0.00 0.00 0.00 86 1016.2
20260505051400 56 217 4.0 5.0 0.00 0.00 0.00 86 1016.2
20260505050858 56 211 0.0 1.0 0.00 0.00 0.00 86 1015.9
20260505050357 56 201 1.0 1.0 0.00 0.00 0.00 86 1015.9